Regional Weather Roundup
Issued by NWS

Home | Current Version | Previous Version | Text Only | Print | Product List | Glossary On
Versions: 1 2 3 4 5 6 7 8 9 10 11 12 13 14 15 16 17 18 19 20 21 22 23 24 25 26 27 28 29 30 31 32 33 34 35 36 37 38 39 40 41 42 43 44 45 46 47 48 49 50
000
ASHW40 PHFO 291743
RWRHI

WEATHER ROUNDUP FOR HAWAII
NATIONAL WEATHER SERVICE HONOLULU HI
700 AM HST FRI AUG 29 2014

THIS IS AN AUTOMATED REPORT THAT HAS NOT BEEN QUALITY CONTROLLED.

NOTE..."FAIR" INDICATES FEW OR NO CLOUDS BELOW 12,000 FEET WITH NO
SIGNIFICANT WEATHER AND/OR OBSTRUCTIONS TO VISIBILITY.

* - THESE SITES REPORT LIMITED FIELDS

HIZ001>004-291800-
KAUAI-NIIHAU-

CITY           SKY/WX    TMP DP  RH WIND       PRES   REMARKS
LIHUE APT      CLEAR     72  67  84 W6        29.94R
PORT ALLEN*      N/A     68 N/A N/A N6          N/A
POIPU*           N/A     70 N/A N/A N3          N/A
PRINCEVILLE*   NOT AVBL
KOKOLE POINT*  NOT AVBL
MOLOAA DAIRY*  NOT AVBL
WAIMEA HTS*      N/A    N/A N/A N/A NE3         N/A
PUU OPAE*        N/A     73  63  68 CALM        N/A
PUU LUA*       NOT AVBL
MAKAHA RIDGE*  NOT AVBL
$$

HIZ005>011-291800-
OAHU-

CITY           SKY/WX    TMP DP  RH WIND       PRES   REMARKS
HONOLULU       PTCLDY    76  67  73 VRB3      29.92R
KALAELOA       CLEAR     71  66  84 CALM      29.93R
KANEOHE MCB    PTCLDY    77  70  79 CALM      29.93R
WHEELER FIELD  FAIR      71  65  81 W3        29.93S
BELLOWS*         N/A    N/A N/A N/A NE8         N/A
KAHUKU*          N/A    N/A N/A N/A E2          N/A
WHEELER*       NOT AVBL
WAIANAE HARBOR NOT AVBL
DILLINGHAM*      N/A     70  66  88 CALM        N/A
KAHUKU TRN*      N/A     73  70  88 E3G9        N/A
KAWAILOA*      NOT AVBL
KII*             N/A     79  70  73 E9          N/A
MAKUA RANGE*     N/A     73  66  78 E2          N/A
OAHU FOREST NW   N/A     66  66 100 N12G18      N/A
SCHOFIELD BRK*   N/A     70  66  88 MISG        N/A
SCHOFIELD S*   NOT AVBL
WAIANAE VLY*     N/A     75  66  73 S3G10       N/A
KUAOKALA*        N/A     75  64  69 CALM        N/A
HONOULIUULI*   NOT AVBL
MOKUOLOE IS*     N/A    N/A N/A N/A MISG        N/A
PALEHUA*         N/A     82  68  61 CALM        N/A
WAIAWA PHB*    NOT AVBL
$$

HIZ012>013-291800-
MOLOKAI-

CITY           SKY/WX    TMP DP  RH WIND       PRES   REMARKS
MOLOKAI AIRPT  MOSUNNY   73  72  96 N3        29.94R
KALAUPAPA      NOT AVBL
MAKAPULAPAI*     N/A     79  68  69 SE7G13      N/A
MOLOKAI 1*       N/A     72  64  78 N3G13       N/A
PUU ALII*        N/A     58  57  98 E1          N/A
$$

HIZ016-291800-
KAHOOLAWE-

CITY           SKY/WX    TMP DP  RH WIND       PRES   REMARKS
KAHOOLAWE*       N/A     70 N/A N/A NE10G16     N/A
HAKIOAWA*      NOT AVBL
HONOKANAIA*      N/A     75  68  78 NE7G16    29.93R
KANELOA*         N/A     73  70  88 NE6G16    30.02
KEALIALALO*    NOT AVBL
LUA MAKIKA*    NOT AVBL
$$

HIZ014>015-291800-
LANAI-

CITY           SKY/WX    TMP DP  RH WIND       PRES   REMARKS
LANAI CITY     FAIR      72  65  78 E8        29.97R
LANAI 1*         N/A     73  73 100 NE14G23     N/A
$$

HIZ017>028-291800-
MAUI-

CITY           SKY/WX    TMP DP  RH WIND       PRES   REMARKS
KAHULUI        MOSUNNY   74  67  78 CALM      29.92R
KAPALUA-W MAUI MOSUNNY   73  66  78 E8        29.92S
HANA AIRPORT   PTSUNNY   75  73  94 CALM      29.95R
HANA*            N/A     70 N/A N/A S2          N/A
HALEAKALA SUMM   N/A     43  30  61 NE10        N/A
MAALAEA BAY*   NOT AVBL
HALEAKALA*     NOT AVBL
KAUPO GAP*       N/A     57  45  62 N3          N/A
KULA 1*          N/A     51  37  58 E6          N/A
$$

HIZ023>026-291800-
BIG ISLAND OF HAWAII COAST AND LOWER SLOPES-

CITY           SKY/WX    TMP DP  RH WIND       PRES   REMARKS
KAILUA KONA    CLOUDY    77  70  79 CALM      29.89S
HILO           SUNNY     71  62  73 SW6       29.91R
HONOKAA*       NOT AVBL
KAWAIHAE MWT*    N/A     79 N/A N/A VRB5        N/A
KAWAIHAE*        N/A     79 N/A N/A NW3         N/A
SOUTH POINT*     N/A     70 N/A N/A N7          N/A
UPOLU AIRPORT*   N/A    N/A N/A N/A E7          N/A
KAMUELA*       CLOUDY    66  63  88 NE9       30.03R
HAKALAU*         N/A     52  44  73 W1          N/A
KALOKO-HONOKO*   N/A     75  70  83 N3        29.88S
PALI 2*          N/A     70  59  68 SW2         N/A
KEALAKOMO*       N/A     73  63  68 CALM        N/A
KAUPULEHU*       N/A     73  63  68 E5          N/A
KAPAPALA*        N/A     61  59  94 NW5         N/A
LOWER KAHUKU*  NOT AVBL
PUHE CS*       NOT AVBL
PUHO CS*         N/A     72  66  82 NE2         N/A
PTA KEAMUKU*     N/A     63  57  82 SE3         N/A
WAIKOLOA*        N/A     75  61  60 E12         N/A
$$

HIZ027>028-291800-
BIG ISLAND OF HAWAII INTERIOR AND SUMMMITS-

CITY           SKY/WX    TMP DP  RH WIND       PRES   REMARKS
BRADSHAW FIELD CLOUDY    56  46  69 E2        30.25R
MK VISITOR CEN   N/A      0   0 100 MISG        N/A
MAUNA KEA*       N/A     43 -18   7 N15         N/A
MAUNA LOA*       N/A     45   5  19 MISG        N/A
MAUNA LOA 1*     N/A    N/A N/A N/A MISG        N/A
PTA KIPUKA*      N/A     55  52  88 CALM        N/A
PTA RANGE 17*    N/A     57  45  62 E6          N/A
PTA WEST*        N/A     61  55  82 S3          N/A
NENE CABIN*    NOT AVBL
AHUMOA*          N/A     58  50  74 S3          N/A
PTA PORTABLE*  NOT AVBL
PUU MALI*      NOT AVBL
$$

HIC003-291800-
NORTHWEST ISLANDS-

CITY           SKY/WX    TMP DP  RH WIND       PRES   REMARKS
MIDWAY ISLAND  CLEAR     79  72  78 E7          N/A
MIDWAY NOS*    NOT AVBL
FRENCH FRIGATE NOT AVBL
$$

PHZ110>124-180-291800-
BUOY REPORTS

STATION/POSITION TIME  TEMP    WIND        PRES    WAVE   SWELL
                       AIR SEA DIR/SP/G            HT/PER HT/DIR
                 (UTC) (F)     (DEG/KT/KT) (MB)    (FT/S) (FT/D)
BUOY 51001       NOT AVBL
BUOY 51101       NOT AVBL
BUOY 51100       1700   74 79  360/  6/  8 1013.6R
BUOY 51003       1700   80 82   40/  6/  8 1012.3R   6/14   5
BUOY 51004       1641   78 80   70/  4/  6 1012.1R   8/16   8/130
BARBERS PT BUOY  NOT AVBL
WAIMEA BAY BUOY  1700      81                N/A     4/ 8   2/300
KAILUA BAY BUOY  1700      81                N/A     5/10   3/ 80
LANAI BUOY       NOT AVBL
BARBERS PT 2     1700      80                N/A     5/13   5/190
PAUWELA MAUI     1700      80                N/A     6/14   3/ 90
HILO             NOT AVBL
KANEOHE BAY BUOY 1700      81                N/A     5/17   2/ 50
HANALEI KAUAI    NOT AVBL
KAHULUI HARBOR   1700   77 82  310/  3/  4 1013.0S
HONOLULU HARBOR  1700   78     190/  1/  4 1013.3R
KILO NALU        NOT AVBL
HILO HARBOR      1700   72     210/  4/  5 1012.5R
MOKUOLOE         1700      82              1013.6R
NAWILIWILI       1700      83                N/A
WHOTS BUOY       NOT AVBL
BUOY 51028       NOT AVBL
$$

......................KEY........................................
  SKY/WX - SKY CONDITIONS/PRESENT WEATHER
  TMP    - TEMPERATURE IN FAHRENHEIT
  DWPT   - DEWPOINT IN FAHRENHEIT
  RH     - RELATIVE HUMIDITY IN PERCENT
  WIND   - DIRECTION AND SPEED /MPH FOR ISLANDS...KTS FOR BUOYS/
  PRES   - MEAN SEA LEVEL PRESSURE IN INCHES OF HG
  VSB    - VISIBILITY IN MILES
  HX     - HEAT INDEX
  WCI    - WIND CHILL INDEX
  VRB    - VARIABLE WIND DIRECTION
  N/A    - NOT AVAILABLE


USA.gov is the U.S. government's official web portal to all federal, state and local government web resources and services.